Regional Weather Roundup
Issued by NWS

Home | Current Version | Previous Version | Text Only | Print | Product List | Glossary Off
Versions: 1 2 3 4 5 6 7 8 9 10 11 12 13 14 15 16 17 18 19 20 21 22 23 24 25 26 27 28 29 30 31 32 33 34 35 36 37 38 39 40 41 42 43 44 45 46 47 48 49 50

000
ASUS43 KDMX 060807
RWRIA

WEATHER ROUNDUP FOR IOWA
NATIONAL WEATHER SERVICE DES MOINES IA
300 AM CDT MON JUL 06 2015

NOTE: "FAIR" INDICATES FEW OR NO CLOUDS BELOW 12,000 FEET WITH NO
SIGNIFICANT WEATHER AND/OR OBSTRUCTIONS TO VISIBILITY.

* - THESE STATIONS ARE NOT NWS STATIONS...THUS NOT UNDER NWS
QUALITY CONTROL.  THEY ALSO DO NOT REPORT WEATHER SUCH
AS PRECIPITATION OR FOG.

IAZ001>003-012>014-020>022-031>034-043>046-060900-
   NORTHWEST IOWA

CITY           SKY/WX    TMP DP  RH WIND       PRES   REMARKS
CARROLL *      CLOUDY    79  75  89 SW13      29.81R HX  82
CHEROKEE *     TSTM      75  68  78 SW18G25   29.81R
DENISON *      RAIN      70  66  88 SW20G32   29.79F
LE MARS *      DRIZZLE   72  70  94 NW13G20   29.85R
ORANGE CITY *  RAIN      70  66  88 W13G18    29.85R
SHELDON *      LGT RAIN  70  70 100 SW14      29.82R
SIOUX CITY     TSTM      72  68  87 NW17G25   29.84R
SPENCER        CLOUDY    78  63  59 S17G24    29.77R HX  80
STORM LAKE *   CLOUDY    73  68  83 SW20G26   29.77F
$$

IAZ055>058-069>071-079>083-090>094-060900-
   SOUTHWEST IOWA

CITY           SKY/WX    TMP DP  RH WIND       PRES   REMARKS
ATLANTIC *     MOCLDY    79  75  89 S5        29.83F HX  82
AUDUBON *      CLEAR     79  73  83 SW5       29.84R HX  82
CLARINDA *     CLEAR     81  81 100 S13       29.85R HX  91
COUNCIL BLFS *   N/A     79  73  83 S10G16    29.81F HX  82
CRESTON *      MOCLDY    77  73  88 S14       29.86R
HARLAN  *      CLOUDY    77  77 100 CALM      29.86F
LAMONI         CLOUDY    76  72  87 S9        29.88S
RED OAK *      CLOUDY    81  75  83 S17G23    29.82S HX  86
SHENANDOAH *   CLEAR     81  75  83 S10       29.82S HX  86
$$

IAZ047>049-059>061-072>074-084-060900-
   CENTRAL IOWA

CITY           SKY/WX    TMP DP  RH WIND       PRES   REMARKS
AMES           TSTM      75  72  90 S15       29.85R FOG
ANKENY *       DRIZZLE   75  73  94 S10       29.83F
CHARITON *     PTCLDY    75  72  88 S13G18    29.88S
DES MOINES     CLOUDY    78  71  79 S15       29.82F THUNDER HX  80
GRINNELL*      MOCLDY    72  68  88 SE12      29.89F
KNOXVILLE *    MOCLDY    75  70  83 S12       29.86F
MARSHALLTOWN   CLOUDY    73  69  87 S12       29.86F
PELLA *        MOCLDY    75  72  88 S10       29.89S
PERRY *          N/A     75  73  94 S7        29.82F
$$

IAZ004>006-015-016-023>025-035-036-060900-
   NORTH CENTRAL IOWA

CITY           SKY/WX    TMP DP  RH WIND       PRES   REMARKS
ALGONA *       LGT RAIN  73  70  88 S16       29.79F
CLARION *      PTCLDY    75  70  83 S20G26    29.82S
ESTHERVILLE    CLOUDY    75  72  90 S10G21    29.78R
FORT DODGE *   CLOUDY    75  70  83 S15       29.83R
MASON CITY     CLOUDY    73  69  87 S13       29.83F
FOREST CITY *  MOCLDY    73  68  83 S14G22    29.81S
IOWA FALLS *   MOCLDY    73  68  83 S13       29.86S
$$

IAZ007>011-017>019-026>030-037>042-050>054-066-060900-
   NORTHEAST IOWA

CITY           SKY/WX    TMP DP  RH WIND       PRES   REMARKS
CEDAR RAPIDS   PTCLDY    71  69  93 S9        29.91S FOG
CHARLES CITY * PTCLDY    73  72  94 S15G23    29.85F
CLINTON *      CLEAR     66  63  88 S6        30.00R
DECORAH *        N/A    N/A N/A N/A MISG        N/A
DUBUQUE        PTCLDY    67  65  93 S14       29.94F FOG
MONTICELLO *   CLEAR     68  68 100 S9        29.93F FOG
OELWEIN *        N/A     70  68  94 S10       29.89F FOG
WATERLOO       CLOUDY    72  68  87 S12       29.86F
$$

IAZ064-065-067-068-078-060900-
   EAST CENTRAL IOWA

CITY           SKY/WX    TMP DP  RH WIND       PRES   REMARKS
DAVENPORT      CLEAR     70  65  84 S10       29.97R
IOWA CITY      PTCLDY    69  67  93 SE6       29.94R FOG
MT. PLEASANT * PTCLDY    73  68  83 S9        29.95R HAZE
MUSCATINE *    CLEAR     70  66  88 CALM      29.95S FOG
QUAD CITIES    CLEAR     69  64  84 S6        29.96R HAZE
$$

IAZ062-063-075>077-085>089-095>099-060900-
   SOUTHEAST IOWA

CITY           SKY/WX    TMP DP  RH WIND       PRES   REMARKS
BURLINGTON     CLEAR     73  69  87 S12       29.95R
FAIRFIELD *    CLEAR     73  68  83 S9G15     29.93R
FORT MADISON * PTCLDY    72  68  88 S8        29.96S FOG
KEOKUK *       PTCLDY    72  70  94 S6        29.95R
OSKALOOSA *      N/A     72  68  88 SE7       29.90F
CENTERVILLE *  CLEAR     73  68  83 S8        29.92F
OTTUMWA        MOCLDY    73  69  87 S10       29.89S
WASHINGTON *   CLEAR     70  68  94 S7        29.95R FOG
$$

ABBREVIATIONS USED IN REMARKS
   TC - TEMPERATURES IN CELSIUS
  WCI - WIND CHILL INDEX
   HX - HEAT INDEX
  VSB - VISIBILITY
$$




USA.gov is the U.S. government's official web portal to all federal, state and local government web resources and services.